TimeMDT,TemperatureF,Dew PointF,Humidity,Sea Level PressureIn,VisibilityMPH,Wind Direction,Wind SpeedMPH,Gust SpeedMPH,PrecipitationIn,Events,Conditions,WindDirDegrees,DateUTC
12:51 AM,30.9,25.0,79,30.24,10.0,Calm,Calm,-,N/A,,Clear,0,2013-10-18 06:51:00
1:51 AM,28.9,24.1,82,30.25,10.0,Calm,Calm,-,N/A,,Clear,0,2013-10-18 07:51:00
2:51 AM,27.0,21.9,81,30.26,10.0,Calm,Calm,-,N/A,,Clear,0,2013-10-18 08:51:00
3:51 AM,26.1,23.0,88,30.27,10.0,Calm,Calm,-,N/A,,Clear,0,2013-10-18 09:51:00
4:51 AM,25.0,21.0,85,30.27,10.0,Calm,Calm,-,N/A,,Clear,0,2013-10-18 10:51:00
5:51 AM,21.9,19.9,92,30.30,10.0,Calm,Calm,-,N/A,,Clear,0,2013-10-18 11:51:00
6:51 AM,24.1,19.9,84,30.30,10.0,Calm,Calm,-,N/A,,Clear,0,2013-10-18 12:51:00
7:51 AM,23.0,19.0,85,30.32,10.0,Calm,Calm,-,N/A,,Clear,0,2013-10-18 13:51:00
8:51 AM,24.1,21.0,88,30.34,10.0,SE,3.5,-,N/A,,Clear,130,2013-10-18 14:51:00
9:51 AM,30.0,26.1,85,30.34,10.0,Calm,Calm,-,N/A,,Clear,0,2013-10-18 15:51:00
10:51 AM,36.0,28.0,73,30.32,10.0,Calm,Calm,-,N/A,,Clear,0,2013-10-18 16:51:00
11:51 AM,41.0,27.0,57,30.31,10.0,Variable,3.5,-,N/A,,Clear,0,2013-10-18 17:51:00
12:51 PM,45.0,26.1,48,30.31,10.0,SSE,5.8,-,N/A,,Clear,150,2013-10-18 18:51:00
1:51 PM,48.9,27.0,43,30.28,10.0,Variable,4.6,-,N/A,,Clear,0,2013-10-18 19:51:00
2:51 PM,51.1,25.0,36,30.26,10.0,South,4.6,-,N/A,,Clear,180,2013-10-18 20:51:00
3:51 PM,53.1,28.0,38,30.24,10.0,WSW,5.8,-,N/A,,Clear,250,2013-10-18 21:51:00
4:51 PM,53.1,28.0,38,30.25,10.0,Variable,5.8,-,N/A,,Clear,0,2013-10-18 22:51:00
5:51 PM,51.1,28.9,43,30.26,10.0,West,6.9,-,N/A,,Clear,270,2013-10-18 23:51:00
6:51 PM,46.0,27.0,47,30.28,10.0,WNW,5.8,-,N/A,,Clear,300,2013-10-19 00:51:00
7:51 PM,39.0,28.0,65,30.31,10.0,ENE,3.5,-,N/A,,Clear,60,2013-10-19 01:51:00
8:51 PM,37.0,27.0,67,30.31,10.0,Calm,Calm,-,N/A,,Clear,0,2013-10-19 02:51:00
9:51 PM,37.0,28.0,70,30.29,10.0,Calm,Calm,-,N/A,,Clear,0,2013-10-19 03:51:00
10:51 PM,37.0,28.9,73,30.27,10.0,North,3.5,-,N/A,,Clear,360,2013-10-19 04:51:00
11:51 PM,30.0,25.0,82,30.28,10.0,Calm,Calm,-,N/A,,Clear,0,2013-10-19 05:51:00